TIME,DELAY(SENSOR),PRES,OXYGEN,RAWTEMP,T(OPTODE),TCPHASE,FLUOR,BETA(BETA700),BETA(BETA412),BETA(BETA440),CDOM,C(CSC),ED(ED411.90),ED(ED443.80),ED(ED489.40),ED(ED554.70),LU(LU412.20),LU(LU443.80),LU(LU489.40),LU(LU555.00),COMP,TILTX,TILTY,CHECK
1374963739,5806,859.4000244140625000,151.0749053955078000,455.1939086914062500,8.9132385253906250,40.5786094665527340,59,321,66,66,70,9744,2146961142,2147515913,2147292644,2147504859,2147084498,2146924973,2147707145,2147121993,420,-1,8,37196
1374967335,5807,964.9400024414062000,183.7666015625000000,509.3529052734375000,7.2390351295471190,39.1063308715820300,58,328,66,64,71,9748,2146962267,2147517339,2147297526,2147516096,2147086546,2146919277,2147716955,2147122020,3075,-1,8,46452
1374970935,5804,980.4799804687500000,182.7048034667968800,522.0117187500000000,6.8449440002441410,39.4013404846191400,58,333,68,64,71,9743,2146960118,2147519268,2147301074,2147517275,2147084068,2146918921,2147722331,2147118372,3178,-1,8,32895
1374974535,5804,981.8300170898438000,197.0554046630859400,523.1265258789062000,6.8101840019226070,38.4894790649414060,59,333,69,65,70,9740,2146963035,2147515876,2147300809,2147517869,2147089389,2146919314,2147723611,2147119808,3073,-1,8,54704
1374978135,5805,984.7700195312500000,198.1376953125000000,524.4260253906250000,6.7696499824523930,38.4452209472656250,59,337,67,65,70,9741,2146964260,2147516553,2147300937,2147517184,2147087131,2146918080,2147723136,2147118857,169,-1,8,33123
1374981735,5806,994.4500122070312000,202.2035980224609400,523.5394897460938000,6.7973017692565920,38.1782913208007800,58,336,69,64,70,9738,2146964416,2147520045,2147301915,2147515574,2147087990,2146920804,2147721929,2147117778,3496,-1,8,31992
1374985335,5808,990.0200195312500000,200.8486938476562500,525.3428955078125000,6.7410469055175780,38.2932281494140600,59,334,72,65,71,9739,2146965979,2147516608,2147300516,2147513810,2147085769,2146920768,2147721883,2147117668,569,-1,8,28691
1374988935,5806,989.5200195312500000,192.1768035888672000,525.9232788085938000,6.7229351997375490,38.8481903076171900,59,335,306,65,71,9737,2146965613,2147520566,2147299300,2147512731,2147084242,2146918948,2147722249,2147118208,192,-1,8,27846
1374992535,5808,993.7700195312500000,184.3975982666015600,526.5921020507812000,6.7020649909973145,39.3686790466308600,58,337,263,66,70,9737,2146963830,2147519323,2147303350,2147515538,2147083227,2146926592,2147720612,2147116662,3585,-1,8,38923
1374996135,5806,990.8900146484375000,188.1764984130859400,526.5443115234375000,6.7035560607910160,39.1183013916015600,58,338,281,66,72,9735,2146962742,2147517961,2147297371,2147516809,2147085632,2146922989,2147723081,2147118902,138,-1,8,13457
1374999735,5805,994.4199829101562000,180.4866027832031200,527.1173706054688000,6.6856708526611330,39.6422386169433600,58,338,243,66,71,9734,2146967579,2147517403,2147300644,2147517568,2147086793,2146917421,2147723300,2147117814,744,-1,8,64660
1375003335,5804,995.5599975585938000,197.5055999755859400,527.3950195312500000,6.6770038604736330,38.5380210876464840,58,345,227,64,70,9734,2146966116,2147522541,2147300827,2147514752,2147084946,2146918957,2147722688,2147120457,2774,-1,8,49590
1375006935,5806,999.5300292968750000,207.0122985839843800,526.8715209960938000,6.6933460235595700,37.9474296569824200,58,343,256,65,71,9733,2146961536,2147517750,2147299501,2147516315,2147087277,2146922066,2147726427,2147118555,2953,-1,8,2737
1375010535,5805,995.5499877929688000,202.3009948730468800,527.0759887695312000,6.6869621276855470,38.2356491088867200,58,344,66,106,72,9730,2146964882,2147519341,2147298038,2147519360,2147086061,2146921645,2147727945,2147120822,2981,-1,8,31689
1375014135,5802,999.9299926757812000,207.9389038085937500,526.5493164062500000,6.7034001350402830,37.8864097595214840,59,346,64,66,70,9727,2146962084,2147520740,2147300214,2147515940,2147088758,2146917760,2147722029,2147121974,3170,-1,8,58952
1375017735,5805,999.0300292968750000,207.3914947509765600,526.7703857421875000,6.6964988708496090,37.9233207702636700,58,346,66,63,70,9728,2146965933,2147517321,2147300580,2147520658,2147086217,2146924352,2147722477,2147119204,3389,0,8,45372
1375021335,5804,1001.1300048828125000,209.1542053222656200,527.2595825195312000,6.6812310218811035,37.8275909423828100,58,348,66,66,71,9730,2146962816,2147516032,2147299958,2147516315,2147088475,2146920393,2147722770,2147118317,3170,-1,8,22109
1375024935,5806,997.2399902343750000,210.3695983886718800,527.8112792968750000,6.6640071868896480,37.7653503417968750,58,350,64,65,70,9730,2146961636,2147519323,2147301997,2147516150,2147086043,2146915858,2147725686,2147121252,3534,-1,8,48125
1375028535,5804,1000.0300292968750000,209.7335968017578000,527.9500122070312000,6.6596779823303220,37.8062210083007800,59,350,65,66,71,9728,2146964726,2147516105,2147296182,2147515666,2147085668,2146926198,2147720594,2147122962,302,-1,8,53562
1375032135,5808,999.3300170898438000,210.6128997802734400,528.0908813476562000,6.6552767753601070,37.7563514709472660,59,352,66,65,70,9725,2146962989,2147512932,2147299254,2147514889,2147086034,2146920146,2147720530,2147118052,601,-1,8,13450
1375035735,5806,999.2899780273438000,211.7342987060547000,528.8585205078125000,6.6313128471374510,37.7046699523925800,59,351,66,64,70,9723,2146963675,2147517997,2147301430,2147517293,2147086016,2146918363,2147716315,2147121179,784,-1,8,12560
1375039335,5805,1002.4099731445312000,212.7696990966797000,528.7567749023438000,6.6344871520996090,37.6428489685058600,58,351,64,65,70,9726,2146967177,2147515757,2147300233,2147515401,2147084562,2146919881,2147723785,2147117696,935,-1,8,49698
1375042935,5809,998.2100219726562000,197.2187042236328000,529.7155761718750000,6.6045460700988770,38.5970382690429700,59,354,66,66,69,9726,2146964598,2147519131,2147302006,2147516141,2147084553,2146919076,2147718208,2147119561,57,0,8,529
1375046535,5810,997.1300048828125000,195.6479949951172000,529.9024047851562000,6.5987091064453125,38.6985816955566400,58,350,66,64,70,9716,2146963053,2147517705,2147301796,2147518573,2147083437,2146917970,2147722157,2147119469,55,0,8,12660
1375050135,5808,999.1500244140625000,210.3630981445312500,529.9033203125000000,6.5986800193786620,37.8033599853515600,58,355,65,64,71,9728,2146966153,2147518098,2147301970,2147518802,2147086354,2146920832,2147724653,2147122368,3577,-1,8,16302
1375053735,5806,1001.9099731445312000,205.7940979003906200,529.3032836914062000,6.6174201965332030,38.0642204284668000,80,354,65,65,70,9725,2146962377,2147513307,2147299547,2147516443,2147084086,2146916114,2147722587,2147123072,3572,-1,8,56743
1375057335,5805,998.2000122070312000,188.8397979736328000,529.8380126953125000,6.6007208824157715,39.1343803405761700,59,355,65,67,69,9718,2146963904,2147518262,2147299044,2147515254,2147085997,2146921782,2147719789,2147117101,3503,-1,8,6991
1375060935,5804,997.1500244140625000,194.3092956542968800,529.8989868164062000,6.5988159179687500,38.7833099365234400,59,354,65,64,71,9729,2146966473,2147518043,2147303213,2147517001,2147084361,2146918464,2147724534,2147120100,3558,-1,8,27356
1375064535,5807,998.2199707031250000,209.5997009277343800,530.1527709960938000,6.5908870697021480,37.8527107238769500,59,355,66,65,71,9725,2146960274,2147520064,2147300845,2147514377,2147084781,2146918043,2147720832,2147118692,3041,-1,8,31090
1375068135,5805,997.6699829101562000,209.2344970703125000,529.8834228515625000,6.5993018150329590,37.8697090148925800,59,356,66,65,69,9727,2146963090,2147516836,2147301595,2147515547,2147086080,2146919972,2147722285,2147121170,3334,-1,8,43675
1375071735,5807,998.0700073242188000,207.5093994140625000,529.8828125000000000,6.5993208885192870,37.9719390869140600,58,356,66,65,70,9724,2146965430,2147517330,2147300644,2147516068,2147084224,2146913508,2147724306,2147120987,3429,-1,8,38362
1375075335,5805,1000.2700195312500000,212.1584930419922000,530.2042236328125000,6.5892848968505860,37.7038688659668000,59,359,65,64,70,9724,2146962761,2147519314,2147302738,2147515017,2147085650,2146918738,2147717741,2147118866,3134,-1,8,39115
1375078935,5801,998.9699707031250000,212.2232971191406200,530.1400146484375000,6.5912880897521970,37.6990699768066400,58,358,65,64,71,9725,2146961307,2147519497,2147301357,2147515136,2147086345,2146919844,2147720502,2147120804,3276,-1,8,64653
1375082535,5806,998.6500244140625000,213.1067047119140600,530.0739135742188000,6.5933551788330080,37.6466484069824200,58,363,65,65,70,9726,2146961828,2147515081,2147300754,2147516205,2147088054,2146913344,2147722230,2147116882,264,-1,8,59086
1375086135,5804,999.8300170898438000,210.4351959228515600,530.4157714843750000,6.5826740264892580,37.8083496093750000,59,360,65,64,70,9719,2146963264,2147518418,2147298806,2147514413,2147084516,2146918848,2147716672,2147118043,3545,-1,8,57931
1375089735,5804,996.3499755859375000,208.1638946533203000,530.9304199218750000,6.5665950775146480,37.9516105651855500,58,362,64,65,70,9720,2146964141,2147517668,2147302829,2147520091,2147086811,2146920201,2147718866,2147117394,3513,-1,8,6446
1375093335,5804,999.8300170898438000,209.8592987060547000,531.3621215820312000,6.5531101226806640,37.8593711853027340,59,362,65,64,71,9712,2146962185,2147517504,2147302034,2147516763,2147083922,2146917449,2147723026,2147121773,317,-1,8,45349
1375096935,5805,1001.9299926757812000,208.8896942138672000,531.1350708007812000,6.5602021217346190,37.9119491577148440,59,366,66,66,70,9714,2146960091,2147519744,2147302226,2147513782,2147084214,2146918482,2147723803,2147118080,3434,-1,8,17786
1375100535,5807,1003.0999755859375000,216.2082977294922000,530.0767211914062000,6.5932669639587400,37.4687614440918000,59,363,66,64,70,9716,2146962770,2147519222,2147297828,2147514441,2147087798,2146918272,2147719497,2147122916,303,-1,8,48297
1375104135,5806,1001.9600219726562000,217.4055023193359400,531.2846069335938000,6.5555310249328610,37.4220390319824200,59,366,65,67,70,9716,2146964809,2147518116,2147301394,2147516964,2147083812,2146919616,2147718738,2147122221,3093,0,8,25668
1375104655,5804,998.1799926757812000,215.5933990478515600,531.1942138671875000,6.5583548545837400,37.5240898132324200,58,366,66,67,70,9706,2146962870,2147518793,2147297042,2147521078,2147087680,2146916598,2147719232,2147122843,3363,-1,8,56506
